Location: Balaclava NSW 2575, Australia
(34.4510°S, 150.4953°E)
Time: 11:15:11
(UTC+10:00)

N. Korean satellite - Pass Details

Date: 25 May 2021
Orbit: 450 x 499 km, 97.2° (Epoch: 24 June)

Event Time Altitude Azimuth Distance (km) Brightness Sun altitude
Rises 17:47:36 0° 181° (S) 2,628 10.1 -10.3°
Reaches altitude 10° 17:49:52 10° 191° (S) 1,732 9.3 -10.7°
Maximum altitude 17:53:10 30° 253° (WSW) 920 8.6 -11.3°
Drops below altitude 10° 17:56:24 10° 315° (NW) 1,694 10.4 -12.0°
Sets 17:58:36 0° 326° (NW) 2,559 11.1 -12.4°
